CAPE
127 97 65 49 54 71 38 14 16 40 7 0 2 2 0 0 0 0 0 0 0 0 0 0 0 0 0 0 0 0 0 5 6 0 0 0 0 0 0 10 0 0 0 0
119 76 29 40 55 85 50 7 24 48 0 5 7 0 0 0 0 0 0 0 0 0 0 0 0 0 0 0 0 0 0 24 0 0 0 0 7 0 0 0 0 0 0 0
90 63 41 32 63 73 46 9 7 26 34 5 0 0 0 0 0 0 0 0 0 0 2 0 0 0 0 0 0 0 0 5 0 0 0 2 12 2 3 3 5 0 0 0
77 27 74 55 32 80 26 18 11 2 4 5 0 0 0 0 0 0 0 4 6 0 17 3 0 0 0 0 0 0 1 6 4 3 0 0 12 11 6 6 0 0 0 0
70 18 73 83 82 69 0 8 7 0 0 0 0 0 0 0 0 0 0 0 2 8 20 0 0 0 0 0 0 5 11 7 3 3 7 6 3 19 18 5 1 0 0 0
66 18 75 79 74 58 7 3 4 1 9 0 0 0 0 0 0 0 1 0 7 13 5 1 1 1 0 1 0 1 8 2 6 0 0 8 9 1 5 9 7 0 2 0
56 29 32 67 72 59 29 2 7 4 12 0 0 0 0 0 0 1 1 0 19 8 4 2 2 0 0 0 0 0 3 3 6 1 3 3 4 0 0 0 0 5 0 0
32 50 10 18 33 47 14 11 7 10 6 5 0 0 0 0 1 1 0 0 1 8 25 0 5 2 0 0 0 0 0 5 6 4 9 0 0 0 0 0 0 0 0 0
44 40 21 15 6 32 11 2 4 7 5 0 0 2 0 0 0 2 3 0 0 3 10 23 14 0 0 0 0 0 0 0 7 12 2 0 0 0 0 0 0 0 0 0
42 45 24 17 4 15 17 6 14 6 5 0 0 0 0 0 1 0 0 0 0 8 19 23 14 3 0 0 0 0 2 1 3 2 3 0 0 0 0 0 0 0 0 0
49 51 28 27 3 11 23 4 6 12 4 0 0 0 0 0 0 0 0 1 2 9 5 30 16 1 0 0 0 0 0 0 0 0 0 0 0 0 0 0 0 0 0 0
63 56 56 9 6 14 27 10 0 2 5 0 0 0 0 0 0 0 0 0 0 3 11 6 6 5 0 0 0 0 0 0 0 0 0 0 0 0 0 0 0 0 0 0
13 9 11 6 5 17 22 13 8 7 1 0 0 0 0 0 0 0 0 0 0 3 10 11 2 0 0 0 0 0 0 0 0 0 0 0 0 0 0 0 0 0 0 0
7 9 15 15 6 5 15 10 3 11 5 1 0 0 0 0 0 0 0 0 0 0 9 18 17 0 0 0 0 0 0 0 0 0 0 0 0 0 0 0 0 0 0 0
15 19 17 19 11 4 1 0 0 2 7 8 5 0 0 0 0 0 0 0 0 6 15 14 17 0 0 0 0 0 0 0 0 0 0 0 0 0 0 0 0 0 0 0
20 17 15 28 20 9 4 4 9 10 17 4 1 0 0 1 0 0 1 0 1 8 21 21 40 0 0 0 0 0 0 0 0 0 0 0 0 0 0 0 0 0 0 0
14 17 44 30 26 4 6 7 7 1 5 4 0 0 0 0 0 1 5 2 3 3 7 10 33 0 0 0 0 0 0 0 0 0 0 0 0 0 0 0 0 0 0 0
8 17 21 9 9 11 6 0 2 6 3 2 8 0 0 0 2 3 0 3 3 2 9 0 0 0 0 0 0 0 0 0 0 0 0 0 0 0 0 0 0 0 0 0
19 9 0 24 15 10 1 0 0 1 5 12 1 0 0 0 0 0 0 2 10 0 2 3 0 0 0 0 0 0 0 0 0 0 0 0 0 0 0 0 0 0 0 0
0 0 0 43 0 0 0 13 5 0 1 1 0 0 0 0 0 3 0 0 5 9 0 0 0 0 0 0 0 0 0 0 0 0 0 0 0 0 0 0 0 0 0 0
0 1 3 0 0 0 9 4 3 0 0 1 0 0 0 0 0 1 0 0 0 0 0 0 0 0 0 0 0 0 0 0 0 0 0 0 0 0 0 0 0 0 0 0
3 7 5 3 0 0 1 0 0 0 0 0 0 0 0 0 0 0 0 0 0 0 0 0 0 0 0 0 0 0 0 0 0 0 0 0 0 0 0 0 0 0 0 0
0 1 0 0 0 0 0 0 0 1 0 0 0 0 0 0 0 0 0 1 0 0 0 0 0 0 0 0 0 0 0 0 0 0 0 0 0 0 0 0 0 0 0 0
0 0 0 0 0 0 0 0 0 0 0 0 0 0 0 0 0 0 0 0 0 0 0 0 0 0 0 0 0 0 0 0 0 0 0 0 0 0 0 0 0 0 0 0
0 0 0 0 1 0 0 0 0 0 0 0 0 0 0 0 0 0 0 0 0 0 0 0 0 0 0 0 0 0 0 0 0 0 0 0 0 0 0 0 0 0 0 0
0 0 0 0 0 0 0 0 0 0 1 0 0 0 0 0 0 0 0 0 0 0 0 0 0 0 0 0 0 0 0 0 0 0 0 0 0 0 0 0 0 0 0 0
0 0 0 0 0 0 0 1 0 3 0 0 0 0 0 0 0 0 0 0 0 0 0 0 0 0 0 0 0 0 0 0 0 0 0 0 0 0 0 0 0 0 0 0
CIN
0 0 0 0 0 0 -2 0 -3 -2 -28 0 0 0 0 0 0 0 0 0 0 0 0 0 0 0 0 0 0 0 0 -2 0 0 0 0 0 0 0 0 -1 0 0 0
0 0 0 0 0 -1 0 0 0 0 -1 0 0 0 0 0 0 0 0 0 0 0 0 0 0 0 0 0 0 0 0 0 0 0 0 0 -1 0 0 0 0 0 -1 0
0 0 0 -1 0 0 0 0 0 0 -2 -1 0 0 0 0 0 0 0 0 0 0 -8 0 0 0 0 0 0 0 0 0 0 0 0 0 0 0 0 0 0 0 0 0
0 0 0 0 0 0 -1 0 0 0 0 0 0 0 0 0 0 0 0 -5 -5 0 -1 0 0 0 0 0 0 0 0 0 0 0 0 -1 0 0 0 0 0 0 0 0
0 0 0 0 0 0 0 0 0 0 0 0 0 0 0 0 0 0 0 0 -2 -11 0 0 0 0 0 0 0 0 0 0 0 0 0 0 0 0 0 0 0 0 0 0
0 0 0 0 0 0 0 -1 0 0 0 0 0 0 0 0 0 0 -3 0 -5 0 -3 -3 -4 -4 0 -5 -1 0 0 0 0 0 0 0 0 0 0 0 0 0 0 0
0 0 0 0 0 0 0 -3 0 -6 0 0 0 0 0 0 0 -6 -10 -13 -1 -8 -28 -19 -6 0 0 0 0 0 -4 0 0 0 0 0 -1 -1 0 0 0 -1 0 0
0 0 0 0 0 0 0 0 0 -13 -4 -1 0 0 0 0 -1 -12 0 0 -2 -22 -3 0 -1 -3 0 0 0 0 0 -1 0 0 0 0 0 0 0 0 0 0 0 0
0 0 0 0 0 0 -1 0 0 0 -4 0 0 -9 0 0 0 -21 -10 0 0 -11 -3 -1 0 0 0 0 0 0 0 0 0 0 0 0 0 0 0 0 0 0 0 0
0 0 0 0 0 0 -1 0 0 0 0 0 0 0 0 0 -12 -2 0 0 0 -7 0 0 -2 -5 0 0 0 0 -1 0 0 0 -1 0 0 0 0 0 0 0 0 0
0 0 0 0 0 -1 -1 -1 -1 0 0 0 -6 0 0 0 0 -1 0 0 0 0 0 0 0 0 0 0 0 0 0 0 0 0 0 0 0 0 0 0 0 0 0 0
0 0 0 0 0 0 0 0 0 0 0 -1 0 0 0 0 0 0 0 0 -2 -1 0 -1 -1 -4 0 0 0 0 0 0 0 0 0 0 0 0 0 0 0 0 0 0
0 0 0 0 0 0 -1 -2 -2 -1 -12 0 0 0 0 0 0 0 0 0 0 -6 -8 0 -2 -1 0 0 0 0 0 0 0 0 0 0 0 0 0 0 0 0 0 0
0 0 0 0 0 0 -1 -2 -3 0 0 -6 0 0 0 0 0 0 0 0 0 0 -3 -1 0 0 0 0 0 0 0 0 0 0 0 0 0 0 0 0 0 0 0 0
0 0 0 0 0 0 -1 0 0 -1 0 0 -3 0 0 0 0 0 0 0 0 0 -1 -1 -1 0 0 0 0 0 0 0 0 0 0 0 0 0 0 0 0 0 0 0
0 0 0 0 0 0 -4 0 0 0 0 0 -10 0 0 0 0 0 0 0 0 0 0 -2 -4 0 0 0 0 0 0 0 0 0 0 0 0 0 0 0 0 0 0 0
0 0 0 0 0 -6 0 0 0 0 0 -5 -7 0 0 0 -1 0 0 0 0 0 -2 0 -2 -1 0 0 0 0 0 0 0 0 0 0 0 0 0 0 0 0 0 0
0 0 0 0 0 -1 -1 -2 -15 0 0 0 -4 0 0 0 0 -8 -18 -6 0 0 -1 -1 -1 0 0 -4 0 0 0 0 0 0 0 0 0 0 0 0 0 0 0 0
0 0 0 -1 -3 0 -1 0 0 0 0 -4 -4 0 0 0 -1 0 0 -12 0 0 0 -1 0 0 0 0 0 0 0 0 0 0 0 0 0 0 0 0 0 0 0 0
0 0 0 0 0 0 0 -1 0 0 0 -1 -10 0 0 0 0 -16 -1 0 0 0 0 0 0 0 0 0 0 0 0 0 0 0 0 0 0 0 0 0 0 0 0 0
-1 0 0 0 0 0 0 0 -1 -1 0 -1 0 0 0 0 0 -15 0 -17 0 0 0 0 0 0 0 0 0 0 0 0 0 0 0 0 0 0 0 0 0 0 0 0
0 -2 -1 0 0 0 0 0 0 0 0 0 0 0 0 0 0 0 0 0 0 0 0 0 0 0 0 0 0 0 0 0 0 0 0 0 0 0 0 0 0 0 0 0
0 -1 0 0 0 0 0 0 0 0 0 0 0 0 0 0 0 0 0 0 0 0 0 0 0 0 0 0 0 0 0 0 0 0 0 0 0 0 0 0 0 0 0 0
0 0 0 0 0 0 0 0 0 0 0 0 0 0 0 0 0 0 0 0 0 0 0 0 0 0 0 0 0 0 0 0 0 0 0 0 0 0 0 0 0 0 0 0
0 0 0 0 0 0 0 0 0 0 0 0 0 0 0 0 0 0 0 0 0 0 0 0 0 0 0 0 0 0 0 0 0 0 0 0 0 0 0 0 0 0 0 0
0 0 0 0 0 0 0 0 0 0 0 0 0 0 0 0 0 0 0 0 0 0 0 0 0 0 0 0 0 0 0 0 0 0 0 0 0 0 0 0 0 0 0 0
0 0 0 -1 0 0 0 0 0 0 0 0 0 0 0 0 0 0 0 0 0 0 0 0 0 0 0 0 0 0 0 0 0 0 0 0 0 0 0 0 0 0 0 0
Wind_Speed
26 25 26 26 29 30 4 1 2 5 4 7 3 1 7 5 3 3 3 4 5 5 7 5 5 6 5 6 9 10 8 4 7 13 8 14 16 13 17 9 6 5 3 14
24 25 26 27 30 29 7 1 2 4 2 4 4 4 4 5 3 2 2 4 4 3 5 5 6 4 5 8 10 11 9 5 4 7 1 4 10 17 16 14 5 15 8 9
25 25 26 27 29 32 7 1 1 3 2 2 6 4 3 5 3 2 3 4 5 4 4 4 3 4 3 11 8 8 11 5 8 12 12 1 7 14 20 15 9 11 21 21
25 26 26 27 31 32 3 3 3 1 3 2 4 5 3 6 3 1 3 3 3 5 4 5 6 6 3 5 10 8 10 8 12 22 24 17 13 14 19 21 23 14 13 17
24 25 26 27 29 28 3 4 2 1 5 6 6 3 3 4 3 4 3 2 7 7 5 5 3 3 5 6 6 9 6 6 5 19 18 20 22 19 19 23 22 23 20 25
24 24 23 25 28 22 3 2 2 2 9 7 4 3 6 7 5 2 2 5 3 7 9 9 9 9 7 4 6 11 5 3 3 15 7 9 7 14 21 19 19 13 17 21
23 23 24 24 24 22 3 2 3 2 4 6 8 8 5 5 4 4 1 4 4 1 2 2 4 6 10 11 15 10 5 4 3 9 8 3 2 4 14 21 20 21 16 11
22 21 22 24 25 25 5 2 2 2 2 5 8 8 7 3 3 3 1 3 4 1 2 3 3 1 3 7 13 12 14 4 4 4 5 7 2 7 1 9 7 20 19 17
20 22 21 22 23 24 10 2 1 2 1 7 6 5 5 4 3 1 2 1 1 2 3 2 3 3 2 4 3 6 6 4 2 4 5 4 3 5 3 2 2 4 19 14
19 20 21 22 24 24 13 3 2 2 3 2 6 7 6 4 4 1 1 2 2 2 2 2 4 3 2 3 3 5 3 3 4 4 4 7 5 4 5 3 6 7 4 6
20 19 19 20 21 20 13 6 2 4 3 2 1 5 6 4 4 3 2 1 1 2 2 3 3 4 5 2 4 5 6 5 4 2 3 6 1 2 1 3 4 3 3 4
20 19 19 19 21 21 17 5 6 7 5 2 1 2 1 4 7 5 3 1 3 2 3 3 3 4 2 3 4 1 3 6 3 7 6 4 4 5 4 3 4 3 1 4
20 21 20 19 20 20 15 4 5 5 3 3 2 3 1 1 1 2 4 2 3 2 1 2 3 4 4 4 5 2 4 4 3 1 3 5 5 3 1 3 2 2 3 9
20 21 20 20 20 20 18 4 3 3 4 2 4 1 1 1 0 2 2 5 3 2 2 3 3 3 3 3 2 3 4 3 2 5 7 5 3 1 2 4 6 9 10 7
21 21 20 20 19 19 12 8 4 6 3 2 1 1 1 2 2 4 4 5 3 2 3 3 4 2 2 1 0 4 6 7 5 6 4 3 3 3 3 6 5 7 12 12
21 22 22 20 19 16 4 4 3 4 2 3 1 2 2 2 2 4 4 3 2 2 3 3 4 2 4 3 4 6 5 3 2 2 1 3 4 4 2 6 5 8 8 11
23 23 24 24 19 3 4 4 3 14 5 3 1 2 1 3 2 2 2 3 3 2 2 4 3 3 3 2 5 5 6 5 5 4 6 3 4 3 5 9 10 13 12 11
24 28 28 22 14 8 5 3 7 5 3 2 1 2 0 4 2 2 3 2 3 4 3 2 2 2 3 5 9 5 1 3 3 5 1 3 8 8 8 9 12 14 12 12
27 27 19 3 2 2 1 15 16 3 3 2 2 3 4 2 1 1 2 1 3 2 3 2 2 3 6 8 6 6 9 8 7 5 5 7 8 10 10 10 10 15 12 11
21 5 3 1 2 12 7 2 5 3 4 3 2 3 2 3 1 0 1 1 1 2 1 2 3 6 9 8 7 5 6 8 12 7 4 5 6 11 11 9 8 10 11 13
4 5 3 3 10 1 0 3 3 2 1 3 2 3 4 1 2 2 1 1 1 2 3 2 3 5 4 5 6 5 7 9 8 1 4 5 11 13 12 11 10 11 12 12
4 5 5 2 3 2 2 2 1 3 4 1 3 4 4 2 1 2 1 2 1 4 3 2 4 6 3 5 5 0 6 8 5 2 6 9 12 12 12 12 12 10 11 12
2 1 3 1 2 1 4 4 2 1 3 1 0 1 1 1 1 2 3 1 3 1 1 5 7 4 4 3 3 3 5 8 7 6 7 11 11 11 13 14 11 14 12 10
2 2 4 2 3 2 3 2 3 3 2 3 0 2 2 1 3 1 2 1 1 2 3 8 4 4 5 4 2 4 5 7 8 8 10 12 13 13 11 12 12 14 14 11
2 1 1 2 2 2 2 3 3 3 2 2 0 1 2 1 4 2 2 0 4 5 7 5 4 4 4 4 1 4 7 7 7 8 9 11 13 13 12 9 10 13 13 13
1 1 2 2 3 3 3 2 4 2 4 1 2 1 1 3 4 4 7 6 8 6 5 4 2 3 1 1 0 3 4 6 9 9 11 12 13 14 13 12 11 11 12 12
1 0 1 0 3 3 2 3 3 4 3 1 1 4 5 2 2 3 6 7 5 4 2 1 2 2 2 3 4 5 6 7 8 10 10 11 13 14 14 15 8 10 10 10
Wind_Direction
342 340 335 341 335 331 338 219 195 161 150 119 121 173 146 113 129 25 104 102 103 120 139 160 198 223 237 179 141 178 197 213 240 228 216 209 211 212 218 228 221 230 222 257
344 338 344 342 336 335 319 298 328 125 95 120 104 271 69 90 122 152 119 96 102 127 146 164 201 197 233 165 165 171 161 219 291 304 313 207 222 218 217 229 254 240 247 250
343 347 345 343 338 333 320 204 102 81 213 326 136 160 84 102 63 120 103 104 86 96 148 226 159 226 263 194 192 178 169 212 211 252 256 211 227 220 217 214 229 246 236 266
346 349 345 344 344 339 329 197 77 118 139 232 152 71 124 111 120 98 172 97 153 162 184 187 220 211 223 169 201 192 179 253 241 255 266 258 245 226 209 216 233 220 270 242
353 352 347 344 347 347 57 12 36 301 142 150 115 37 188 147 137 137 157 165 178 168 212 211 200 197 187 204 186 182 200 265 258 274 264 253 254 231 223 216 227 240 257 276
351 353 348 348 352 355 6 326 272 273 155 159 140 196 159 192 135 197 134 192 166 211 230 231 248 244 259 232 175 193 211 235 261 279 296 278 263 239 225 226 222 226 231 244
350 353 349 349 350 2 318 280 274 293 151 161 180 171 188 147 186 125 66 155 199 225 135 234 234 241 245 240 238 221 209 183 242 287 303 248 266 273 225 218 223 217 237 247
346 352 348 349 347 352 328 270 275 306 132 171 192 169 190 156 119 161 137 215 208 246 2 308 297 293 285 241 235 227 218 221 269 279 287 290 254 335 91 182 240 223 225 230
346 346 347 348 347 351 346 307 295 295 177 213 167 158 170 144 176 42 215 81 348 233 194 167 266 253 290 304 310 6 170 186 206 335 304 318 295 335 87 221 315 357 216 218
344 343 344 347 348 349 346 278 320 268 260 248 149 170 169 119 104 173 161 188 191 193 185 241 228 249 233 251 242 175 161 188 224 240 273 286 285 311 310 16 303 332 238 192
344 343 341 348 345 344 352 288 335 328 303 300 22 153 138 105 145 163 181 139 162 128 193 224 203 222 236 280 234 191 178 165 208 186 248 304 106 15 108 269 308 317 3 108
340 339 342 349 339 342 353 316 319 300 238 286 300 314 353 153 178 137 182 215 130 191 253 222 264 216 163 204 273 274 254 192 193 179 221 233 222 234 288 312 267 340 146 114
342 340 338 337 335 337 345 317 319 318 300 327 37 225 290 62 157 159 142 210 196 167 148 330 263 267 128 192 236 227 253 181 218 20 268 251 262 273 73 342 299 350 112 123
331 329 330 333 331 329 333 309 291 254 276 271 277 26 210 8 167 145 97 127 88 122 176 217 269 241 171 223 238 202 210 126 232 267 283 288 260 207 77 74 76 84 70 90
325 323 323 321 322 323 320 285 239 217 285 287 270 354 61 25 127 145 120 121 132 199 220 201 241 239 163 217 45 240 186 194 173 228 228 156 277 98 135 106 100 100 111 102
322 319 315 313 314 319 333 309 69 73 283 271 262 105 137 126 160 147 155 155 173 211 245 228 250 240 170 199 235 258 210 203 171 266 97 98 106 107 88 102 105 93 91 104
319 312 312 309 301 265 207 244 333 323 320 257 325 330 162 150 167 197 178 167 210 215 225 222 258 258 198 231 229 258 230 216 198 157 139 92 203 169 114 107 101 94 86 89
317 314 314 305 280 255 250 248 285 338 258 270 220 263 320 181 176 212 176 210 195 202 244 244 214 276 221 251 226 237 157 111 131 169 77 82 110 98 101 118 121 107 106 109
319 319 315 299 144 173 253 308 309 226 279 230 154 163 219 147 218 194 228 243 226 185 228 232 169 212 225 228 207 209 198 190 179 101 91 114 119 130 131 132 125 122 127 122
327 354 354 155 75 312 313 206 194 162 212 224 191 115 187 188 152 129 319 263 261 255 251 324 229 249 242 248 218 224 191 164 141 122 121 117 129 156 155 155 139 135 129 123
2 350 325 301 315 284 269 270 167 151 247 182 198 162 159 210 151 199 200 259 280 262 265 278 266 270 251 342 306 215 158 166 181 106 116 148 157 155 143 128 121 122 123 124
254 276 298 299 330 53 308 244 101 146 206 179 171 205 182 167 168 140 155 192 317 254 327 294 260 253 283 326 327 215 149 153 153 110 139 125 135 141 132 126 121 112 113 120
26 309 330 19 337 334 340 21 29 89 9 311 108 36 124 98 64 65 101 200 242 26 264 247 237 268 287 325 341 53 116 115 104 99 98 110 108 112 128 122 118 120 114 114
46 349 9 44 22 4 15 339 294 313 278 324 279 109 194 161 68 153 159 254 344 267 249 241 253 262 315 336 346 128 132 117 120 117 117 118 118 111 112 120 130 128 126 124
55 343 80 82 360 281 321 278 273 249 247 265 185 338 144 250 103 58 98 287 247 228 234 237 254 267 300 326 346 143 137 130 124 125 120 118 121 119 110 110 119 121 122 120
69 71 23 315 49 297 349 311 298 299 315 278 104 276 271 221 137 132 213 159 226 243 222 231 284 305 303 314 128 143 120 123 129 129 130 125 128 128 119 110 111 115 121 122
49 269 250 312 277 246 291 304 281 310 309 293 23 199 224 58 79 256 191 209 226 228 252 218 237 233 265 127 123 118 113 117 120 122 121 115 117 121 118 114 106 100 99 103